Regional Weather Roundup
Issued by NWS

Home | Current Version | Previous Version | Text Only | Print | Product List | Glossary Off
Versions: 1 2 3 4 5 6 7 8 9 10 11 12 13 14 15 16 17 18 19 20 21 22 23 24 25 26 27 28 29 30 31 32 33 34 35 36 37 38 39 40 41 42 43 44 45 46 47 48 49 50

000
ASUS45 KTFX 060110
RWRMT
MONTANA REGIONAL WEATHER ROUNDUP
NATIONAL WEATHER SERVICE GREAT FALLS MT
700 PM MDT SUN JUL 05 2015

NOTE: "FAIR" INDICATES FEW OR NO CLOUDS BELOW 12000 FEET WITH NO
SIGNIFICANT WEATHER AND/OR OBSTRUCTIONS TO VISIBILITY.

MTZ001>007-043-060200-
WEST OF THE DIVIDE

CITY           SKY/WX    TMP DP  RH WIND       PRES   REMARKS
KALISPELL      PTCLDY    67  41  38 NE17G26   30.13F
MISSOULA       MOSUNNY   73  47  39 N16G26    30.04R
BUTTE          CLOUDY    64  48  56 NE6       30.14R
MULLAN PASS    MOSUNNY   64  48  56 VRB5      30.15R
DEER LODGE       N/A     57  46  67 NW16G22   30.18S
EUREKA           N/A     72  37  28 NE13G18   30.10S
HAMILTON         N/A     72  52  49 N9        30.01R
LIBBY            N/A     73  43  33 E7        30.08F
RONAN            N/A     67  48  50 N20       30.13R
$$

MTZ008-052>055-060200-
SOUTHWEST MONTANA

CITY           SKY/WX    TMP DP  RH WIND       PRES   REMARKS
BOZEMAN        LGT RAIN  58  51  78 SE5       30.13S
DILLON         CLOUDY    58  53  84 NE18G29   30.08S
W YELLOWSTONE  PTSUNNY   68  50  52 SW13      30.12S
TWIN BRIDGES     N/A     60  49  67 N22       30.06R
$$

MTZ009-010-012-014-046-048-049-054-060200-
EAST SLOPES AND CENTRAL MONTANA

CITY           SKY/WX    TMP DP  RH WIND       PRES   REMARKS
CUT BANK       CLOUDY    55  46  71 N7        30.24R
GREAT FALLS    LGT RAIN  52  50  93 N8        30.22R
MALMSTROM AFB  PTSUNNY   53  51  92 N5        30.23R
HELENA         RAIN      53  50  89 NW8       30.20R FOG
$$

MTZ011-013-016-021-045-047-050-051-060200-
NORTH CENTRAL MONTANA

CITY           SKY/WX    TMP DP  RH WIND       PRES   REMARKS
HAVRE          CLOUDY    61  52  72 MISG      30.17R
LEWISTOWN      LGT RAIN  51  48  89 N10       30.20R
CHINOOK          N/A     61  52  72 W7        30.16R
FORT BENTON      N/A     57  50  77 NW3       30.22R
$$

MTZ017>020-022>027-061-062-060200-
NORTHEAST MONTANA

CITY           SKY/WX    TMP DP  RH WIND       PRES   REMARKS
GLASGOW        CLOUDY    67  47  48 W10       30.09R
JORDAN           N/A     59  55  87 W8        30.12F
SIDNEY         CLOUDY    72  46  40 NW10      30.05R
WOLF POINT     CLOUDY    67  52  58 W6        30.07F
PLENTYWOOD       N/A     68  48  49 NW9G16    30.05S
POPLAR           N/A     66  54  63 W6        30.07S
SCOBEY           N/A     67  44  43 NW9       30.06R
$$

MTZ028>42-056>058-060200-
SOUTHCENTRAL AND SOUTHEAST MONTANA

CITY           SKY/WX    TMP DP  RH WIND       PRES   REMARKS
BAKER          CLOUDY    66  55  67 NW3       30.07S HAZE
BILLINGS       TSTM      60  52  74 NE9       30.15R
LIVINGSTON     CLOUDY    60  47  61 E18       30.14R
MILES CITY     CLOUDY    69  48  47 N22       30.08R
EKALAKA          N/A     62  53  72 NW1       30.07R
FORSYTH          N/A     66  48  52 N10G20    30.10R
LAUREL           N/A     59  48  66 CALM      30.13R
ROUNDUP          N/A     60  45  57 N12       30.07R
$$

REGIONAL REPORTS...DAKOTAS

CITY           SKY/WX    TMP DP  RH WIND       PRES   REMARKS
WILLISTON      CLOUDY    73  47  39 N12       30.03R
MINOT          CLOUDY    71  56  58 NW15      29.95R HAZE
DICKINSON      CLOUDY    66  58  75 NW5       30.02R HAZE
BEACH          MOCLDY    64  54  68 N8        30.07R
CROSBY         FAIR      66  50  55 NW12      30.03R
BISMARCK       CLOUDY    72  60  66 W6        29.95R HAZE
GRAND FORKS    PTSUNNY   72  66  81 N6        29.83R
FARGO          PTSUNNY   75  65  70 N13       29.81R
BUFFALO SD       N/A     64  55  72 N9        30.01R
RAPID CITY     LGT RAIN  64  62  93 N29G36    29.97F
$$

REGIONAL REPORTS...WYOMING/IDAHO/WASHINGTON

CITY           SKY/WX    TMP DP  RH WIND       PRES   REMARKS
GILLETTE       CLOUDY    57  55  93 N14       30.12R FOG
SHERIDAN       CLOUDY    57  54  89 NW9       30.15R FOG
BUFFALO WY     LGT RAIN  54  53  97 N12       30.16R FOG
CODY           CLOUDY    55  52  88 N14       30.17R
YELLOWSTONE LA   N/A     63  48  58 CALM      30.23F
IDAHO FALLS    PTSUNNY   79  51  37 S13       29.99F
SALMON         CLOUDY    81  45  28 S5        29.91R
BOISE          CLOUDY    79  55  43 E8        29.94F
SPOKANE        PTSUNNY   85  42  22 E13G22    29.93S
$$

REGIONAL REPORTS...ALBERTA

CITY           SKY/WX    TMP DP  RH WIND       PRES   REMARKS
EDMONTON       MOSUNNY   66  37  34 N6        30.16S
CALGARY        MOSUNNY   63  43  48 NE13G28   30.22S
LETHBRIDGE     MOSUNNY   61  45  55 NW2       30.21S
MEDICINE HAT   CLOUDY    63  46  55 NW14      30.16R
CARDSTON         N/A     59  48  67 N2          N/A
MILK RIVER       N/A     57  50  77 NE7         N/A
ONEFOUR          N/A     55  50  82 W14         N/A
$$

REGIONAL REPORTS...SASKATCHEWAN

CITY           SKY/WX    TMP DP  RH WIND       PRES   REMARKS
SWIFT CURRENT  CLOUDY    61  46  59 NW10      30.11R
REGINA         PTSUNNY   64  48  55 N12       30.05R
SASKATOON      PTSUNNY   63  46  55 N13       30.10R
CYPRESS HILLS    N/A     54  45  71 N5          N/A
VAL MARIE        N/A     63  48  59 N13         N/A
ASSINIBOIA       N/A     66  39  37 N7          N/A
$$



USA.gov is the U.S. government's official web portal to all federal, state and local government web resources and services.